User: anonymous   Login
Location: Wavehorne
(51.0500°N, 0.8333°E)
Time: 11:34:47
(UTC+00:00)
Language:

Cosmos 1633 - Orbit

View from above orbital plane
View from above orbital plane
View from above satellite
View from above satellite

Ground track
Ground track

The orbit data is extracted from the following two-line orbital elements,

1 15592U 85020A   21259.90265571  .00002510  00000-0  78446-4 0  9992
2 15592  82.5394 198.9393 0014281  71.9987 288.2810 15.32569207  1509
Epoch (UTC): 16 September 2021 21:39:49
Eccentricity: 0.0014281
inclination: 82.5394°
perigee height: 458 km
apogee height: 478 km
right ascension of ascending node: 198.9393°
argument of perigee: 71.9987°
revolutions per day: 15.32569207
mean anomaly at epoch: 288.2810°
orbit number at epoch: 150

The dashed part of the orbit path shows where the satellite is in the earth's shadow,  

DLR